Tracking 31080 objects as of 20-Jul-2025
HD Live streaming from Space Station
objects crossing your sky now

FENGYUN 1C DEB

Track FENGYUN 1C DEB now!
10-day predictions


NORAD ID: 30280
Int'l Code: 1999-025YR
Perigee: 848.6 km
Apogee: 965.9 km
Inclination: 98.8 °
Period: 103.0 minutes
Semi major axis: 7278 km
RCS: 0.043 m2 (small)
Launch date: May 10, 1999
Source: People's Republic of China (PRC)
Launch site: Taiyaun Space Center, China (TSC)

Note: This is SATELLITE DEBRIS
Your satellite tracking list
Your tracking list is empty




NASA's NSSDC Master Catalog

Two Line Element Set (TLE):
1 30280U 99025YR  25200.96164926  .00000242  00000-0  19386-3 0  9998
2 30280  98.7619 196.7453 0080608  14.4112  13.2731 13.98187035943698
Source of the keplerian elements: AFSPC